TITAN 3C TRANSTAGE DEB, 26049

Orbit data source: Space-Track

TITAN 3C TRANSTAGE DEB, 26049 is space debris in HEO originally from a launch on Tue, 21 Dec 1965 UTC launched from the Air Force Eastern Test Range (AFETR). Debris objects in space refer to the collection of defunct objects orbiting the Earth. Examples of debris include non-operational satellites, rocket bodies, and fragments generated from explosions, collisions, or faulty payload assembly.

Loading next visibility...
TITAN 3C TRANSTAGE DEB details
Identifier
26049, 1965-108AH
Orbit
HEO
Last TLE update5 days ago
Origin
Flag of USUSAF SSD (US)
ManufacturerUnknown
MissionSpacecraft
Bus & MotorUnknown
MassUnknown
Launch date (UTC)
1965-12-21 (59 years ago)
Launch vehicleUnknown
Launch site
Air Force Eastern Test Range (AFETR)
Object type
Payload
Rocket body
Debris
Shape & HBRUnknown
Radar Cross SectionSmall (<0.1 m²)

Expand to show TLE details & history

TLE from 5 days ago
0 TITAN 3C TRANSTAGE DEB
1 26049U 65108AH  24352.67150779  .00013247  00000-0  20695-1 0  9999
2 26049  27.2078 129.3047 4808796 214.5507 101.9569  5.68149645 78577
Epoch: 2024-12-17T16:06Z
Definitive object data (Epoch: 2024-12-17T16:06:58.273Z)
Latitude-0.00002°
Longitude160.76488°
Altitude10,512.156 km
Speed4.142 km/s
True Right ascension08h 37m 08s
True Declination0° 00' 00"
Sunlit
Object was in daylight at TLE epoch
Visualization TLE readout
Latitude-7.0709°
Longitude141.56812°
Altitude7,197.474 km
Speed5.355 km/s
Apparent Right ascension08h 33m 30s
Apparent Declination-29° 04' 28"
Sunlit
Object is in daylight
Visualization observer readout
Local Sidereal Time04:34:51
Azimuth131.012° SE
Elevation1.534°
Doppler factor1
Orbital elements
Apogee altitude13,273.137 km
Perigee altitude510.591 km
Semi-major axis13,270.001 km
Eccentricity0.4808796
Inclination27.2078°
RAAN129.3047°
Arg. of periapsis214.5507°
True anomaly145.48447°
Mean anomaly101.9569°
Eccentric anomaly124.62848°
Mean motion1.41983 °/min
BSTAR0.020695
Orbital period253.55 mins
Loading maneuver chart data...

TITAN 3C TRANSTAGE DEB Visibility forecast

Observer location: undefined°, undefined

Span
Click to sort rows by Start time (UTC) header in descending order
Start Az.
Max El. time (UTC)
Max El. Az.
Max El.
End time (UTC)
End Az.
165 mins2024-12-22 09:43:15.338Z208.953° SW2024-12-22 11:14:15.338Z142.733° SSE39.73°2024-12-22 12:28:15.338Z87.245° E
134 mins2024-12-22 14:49:15.338Z260.222° W2024-12-22 16:40:15.338Z202.751° SW41.6°2024-12-22 17:03:15.338Z125.388° SE
|